Wind_Speed
7 9 10 12 14 15 16 16 16 17 17 17 17 17 18 18 19 19 19 20 20 20 20 21 22 22 22 23 22 22 23 23 24 25 25 26 26 26 26 27 27 28 28
8 9 11 12 13 14 16 16 16 17 17 18 18 19 20 20 20 20 21 21 22 23 23 23 24 24 24 24 25 25 25 26 26 27 28 28 29 29 30 31 31 31 32
8 9 11 12 12 14 16 17 18 18 18 19 20 21 22 22 21 22 22 23 24 24 24 25 25 26 26 26 27 27 27 28 28 29 30 30 31 32 33 34 35 35 35
9 9 10 11 13 14 15 16 18 19 20 21 21 21 22 23 22 22 23 23 24 25 26 26 27 27 28 28 28 28 28 28 29 30 32 33 34 34 35 35 37 38 39
9 10 10 11 13 14 15 16 17 19 20 22 22 22 23 23 24 24 24 25 25 25 26 27 28 28 28 28 28 29 30 31 31 32 33 34 35 36 36 37 38 40 41
10 11 11 12 13 14 15 16 17 18 19 21 22 22 23 24 24 25 26 26 26 27 27 28 28 29 28 28 29 31 32 33 34 34 35 36 37 38 39 40 40 41 43
11 12 12 12 12 13 14 16 17 18 19 20 22 23 24 24 25 25 24 25 27 28 28 28 29 30 30 31 32 34 34 35 36 37 38 39 40 42 42 43 44 46 47
13 13 13 13 13 14 14 14 15 18 20 20 21 23 24 23 23 24 25 26 27 28 29 29 30 31 32 33 34 35 35 37 38 39 40 42 43 44 46 47 48 50 51
14 14 14 14 14 14 15 15 16 17 18 19 19 22 23 24 25 26 27 28 29 30 30 31 31 33 34 35 36 38 39 40 40 42 43 45 47 48 49 51 52 54 55
16 16 16 16 16 15 16 17 18 18 18 19 20 21 23 24 24 26 27 28 29 30 31 32 33 34 35 37 38 39 41 42 44 45 47 48 50 52 53 55 56 57 59
19 19 19 18 18 18 18 18 19 19 19 20 21 21 22 24 25 26 27 28 29 30 32 33 35 36 38 39 40 42 43 45 47 49 50 52 54 55 57 58 59 61 62
21 21 21 21 20 20 20 21 21 20 20 21 22 23 24 24 25 27 29 30 32 32 34 36 37 38 40 41 42 44 46 48 50 52 54 55 57 58 59 61 62 63 64
23 23 22 22 22 22 22 21 21 22 23 23 24 25 26 26 28 28 30 32 33 34 36 37 38 40 42 43 45 47 49 51 53 55 56 57 58 59 59 60 61 62 63
24 23 23 22 22 23 23 23 24 25 25 25 26 26 27 28 30 31 33 33 34 37 39 39 40 42 44 46 48 50 51 53 54 55 56 56 57 57 58 59 60 61 62
23 23 22 22 22 23 24 25 26 26 26 27 27 28 29 30 32 33 35 36 38 39 40 41 42 44 46 47 49 50 51 52 53 54 55 55 55 56 57 58 58 59 59
24 23 23 23 24 25 26 27 27 27 27 27 28 29 30 31 33 34 35 36 38 39 41 42 44 45 47 48 49 51 51 52 53 53 54 54 55 56 57 56 55 55 54
23 23 23 24 24 25 26 26 26 27 27 27 28 30 31 32 33 35 36 37 39 40 41 43 44 46 47 48 49 50 51 51 52 53 53 53 54 53 53 52 51 50 50
23 23 23 24 24 24 25 26 26 27 27 29 29 30 31 33 34 36 38 39 40 40 42 43 44 46 47 48 49 50 50 50 50 50 50 50 50 49 48 48 47 46 45
23 24 24 24 24 26 26 26 27 28 29 30 31 32 33 34 36 37 38 39 40 41 43 44 45 46 46 47 47 47 47 47 47 47 46 46 45 45 44 43 42 41 40
23 23 23 24 25 26 26 26 27 28 30 31 32 33 34 35 36 37 39 40 41 41 42 43 43 43 43 43 43 43 43 43 43 43 42 42 41 41 39 38 38 37 36
22 22 22 23 23 24 26 27 29 30 30 32 33 33 34 35 36 37 39 39 40 40 40 40 40 40 39 40 40 40 40 40 39 39 39 39 38 37 36 36 35 34 33
20 21 21 22 23 25 27 29 29 29 30 31 32 33 33 35 36 37 37 37 37 37 37 37 37 37 37 37 38 37 38 38 38 37 37 37 36 35 34 34 33 32 32
19 20 21 23 24 25 26 27 27 28 30 31 32 33 34 34 35 35 35 35 35 35 36 35 35 35 35 35 36 36 36 36 36 36 35 35 34 33 33 32 31 31 30
18 20 21 22 23 24 26 27 28 29 30 31 32 32 33 33 33 33 33 33 33 34 33 33 33 33 33 33 33 34 34 34 34 33 33 32 32 31 31 31 30 29 29
19 20 22 23 25 26 27 28 29 29 30 30 31 31 31 31 31 31 31 31 31 31 30 30 30 30 31 31 32 33 33 32 32 31 31 31 30 30 30 29 28 28 27
20 22 24 25 26 27 28 29 29 29 29 29 29 29 29 29 29 30 30 29 29 28 28 28 28 29 30 30 31 32 31 31 30 30 29 29 29 28 28 28 27 27 26
Wind_Direction
253 240 238 236 232 230 231 229 230 232 232 234 236 238 242 244 248 251 253 253 255 258 260 263 266 268 269 269 269 271 273 274 274 274 275 275 275 276 277 276 277 276 276
263 254 247 244 238 237 235 232 233 234 236 237 240 243 246 248 253 254 257 259 259 261 263 266 267 269 270 270 270 270 271 273 274 275 275 274 274 275 275 276 276 276 276
264 258 251 247 242 240 239 238 239 240 241 242 244 247 248 252 256 257 260 261 262 264 265 266 268 270 272 272 272 272 273 274 275 275 275 274 275 276 275 276 276 276 276
265 257 253 249 245 244 244 244 244 243 243 244 247 251 252 256 258 259 262 263 266 267 267 268 269 270 271 272 273 272 273 274 275 276 276 276 276 276 276 275 275 276 276
268 260 260 255 251 250 248 250 250 249 248 247 250 254 256 258 260 263 265 265 266 268 269 270 271 273 273 273 275 274 274 276 277 278 277 277 278 277 278 278 278 277 277
269 266 263 260 256 251 247 250 251 249 250 251 253 257 261 263 263 265 266 266 266 269 271 273 274 274 274 274 275 276 277 278 279 279 278 278 279 279 280 279 278 278 278
271 271 268 264 260 257 256 258 256 254 253 255 255 258 261 262 264 266 269 269 270 270 271 273 274 273 274 274 274 275 277 279 279 280 281 281 281 281 281 280 280 279 279
274 273 268 264 263 261 261 261 263 262 260 259 260 261 263 262 265 269 269 270 270 271 272 275 276 276 276 276 276 277 278 280 280 281 283 283 282 282 282 282 282 282 282
273 273 270 269 268 266 265 264 266 269 268 268 270 268 268 270 272 272 271 271 272 273 273 276 277 278 277 277 278 279 281 281 281 282 283 284 284 284 283 283 283 283 283
269 271 270 272 274 270 268 267 268 270 270 267 270 270 270 272 273 273 274 274 274 274 275 276 277 279 280 281 282 282 282 283 283 284 285 286 286 286 286 285 285 284 284
265 268 270 271 271 270 270 270 272 273 272 271 271 270 272 272 273 274 275 276 276 275 276 277 279 280 281 282 283 283 285 286 287 287 287 287 288 287 287 286 286 286 285
265 268 269 269 270 269 269 271 273 274 277 277 274 273 273 273 274 275 275 276 277 278 280 281 281 282 284 284 284 285 286 287 288 288 289 289 288 288 288 288 287 287 286
264 265 268 269 266 266 269 271 273 274 277 277 277 276 275 275 275 276 277 279 279 280 282 283 285 285 286 287 287 287 288 288 289 290 290 290 290 289 289 289 289 289 288
263 264 267 268 266 265 268 270 272 274 276 277 279 279 278 277 276 278 279 280 282 283 284 286 286 287 288 288 289 289 290 291 292 292 292 292 292 291 291 291 290 290 290
263 263 266 267 269 269 269 269 271 274 275 277 278 279 280 280 280 280 282 283 284 286 288 289 290 291 292 292 292 293 293 294 294 293 294 294 294 294 294 293 293 293 292
262 261 264 265 268 270 272 273 273 274 276 277 279 280 282 284 284 285 287 287 289 290 291 292 293 293 294 294 295 295 295 295 295 295 296 296 296 296 296 296 295 295 295
261 261 262 264 267 269 270 273 276 278 278 279 282 284 285 287 287 288 290 291 292 292 294 295 295 295 296 297 297 298 298 298 298 298 299 299 299 299 298 298 298 298 297
260 261 263 265 267 269 272 274 277 280 281 283 286 287 288 289 289 290 292 293 294 295 296 297 298 298 299 299 299 300 300 301 301 301 302 302 302 301 301 300 300 300 300
262 262 263 265 268 272 272 275 278 281 283 285 286 288 290 291 291 292 293 294 296 297 298 299 300 301 301 302 302 303 304 304 304 304 304 304 304 304 304 304 303 303 302
260 259 262 267 271 273 275 279 282 284 286 287 287 289 291 292 293 294 296 297 298 300 301 302 303 304 305 306 306 307 307 308 308 307 307 307 308 308 307 307 307 306 305
262 264 268 271 273 277 281 284 286 286 287 289 290 291 293 295 297 298 300 301 302 304 305 306 307 308 309 309 310 311 311 311 311 310 310 311 311 311 311 310 309 308 308
265 268 271 274 279 283 286 287 287 289 291 293 294 296 297 299 301 302 304 305 306 307 308 309 310 310 311 313 314 314 314 314 314 313 313 313 313 312 312 312 311 310 310
270 273 277 280 283 287 289 290 291 293 296 298 299 300 302 303 304 305 307 308 309 310 311 312 313 313 314 315 316 316 317 317 317 317 316 316 315 315 314 314 313 313 313
278 281 283 286 290 292 294 295 297 299 301 302 303 304 305 306 307 308 309 310 311 312 314 315 315 316 317 318 319 320 321 320 320 320 320 319 319 318 318 317 316 315 315
285 288 290 293 295 296 297 299 301 302 304 304 305 306 308 309 310 311 312 313 314 316 317 318 319 320 321 322 323 324 324 324 324 324 323 323 323 323 322 321 319 318 318
292 294 296 297 298 299 300 302 304 305 306 306 308 309 310 311 312 313 315 316 317 319 320 321 322 323 324 325 326 327 327 327 328 328 327 328 328 328 327 326 324 323 322
Height
5832 5833 5833 5834 5835 5837 5839 5840 5842 5844 5846 5848 5850 5851 5853 5854 5855 5856 5857 5858 5859 5860 5861 5861 5861 5862 5861 5861 5861 5861 5860 5860 5859 5858 5858 5857 5856 5856 5855 5854 5853 5852 5851
5830 5830 5831 5831 5832 5834 5836 5837 5839 5841 5843 5845 5846 5847 5849 5850 5851 5852 5853 5853 5854 5855 5855 5855 5856 5856 5856 5856 5855 5855 5854 5854 5853 5852 5851 5850 5849 5848 5848 5847 5846 5845 5843
5828 5828 5828 5829 5830 5831 5833 5834 5836 5837 5839 5841 5842 5843 5844 5845 5846 5847 5848 5848 5849 5849 5849 5849 5850 5850 5849 5849 5849 5848 5847 5847 5846 5845 5844 5843 5842 5841 5840 5839 5837 5836 5835
5826 5826 5826 5826 5827 5828 5829 5830 5832 5833 5835 5836 5837 5839 5840 5840 5841 5842 5842 5843 5843 5843 5843 5843 5843 5843 5842 5842 5841 5841 5840 5839 5838 5837 5836 5835 5833 5832 5831 5830 5828 5826 5825
5824 5824 5823 5824 5824 5825 5826 5826 5827 5828 5830 5831 5833 5834 5834 5835 5836 5836 5836 5837 5837 5837 5837 5837 5836 5836 5835 5834 5834 5833 5832 5831 5830 5829 5827 5826 5824 5823 5821 5820 5818 5816 5814
5822 5821 5821 5821 5821 5821 5822 5822 5823 5824 5825 5826 5828 5828 5829 5829 5830 5830 5830 5830 5831 5830 5830 5830 5829 5828 5827 5826 5826 5825 5824 5822 5821 5820 5818 5816 5814 5813 5811 5809 5807 5805 5803
5819 5818 5818 5818 5818 5818 5818 5818 5819 5820 5821 5821 5822 5823 5823 5823 5824 5824 5823 5824 5823 5823 5823 5822 5821 5820 5820 5818 5817 5816 5815 5813 5812 5810 5808 5806 5804 5802 5799 5797 5794 5792 5790
5815 5815 5814 5814 5814 5814 5814 5815 5815 5815 5816 5816 5817 5817 5817 5817 5817 5817 5817 5817 5816 5816 5815 5814 5814 5812 5811 5810 5809 5807 5805 5804 5802 5800 5797 5794 5792 5789 5787 5784 5782 5779 5776
5811 5811 5811 5811 5811 5811 5811 5811 5811 5811 5811 5811 5811 5811 5811 5810 5810 5810 5810 5810 5809 5808 5808 5807 5805 5804 5803 5801 5799 5797 5795 5793 5790 5788 5785 5782 5779 5776 5773 5771 5767 5764 5761
5806 5807 5807 5807 5807 5807 5807 5807 5807 5807 5807 5807 5807 5806 5806 5805 5805 5804 5803 5803 5802 5801 5800 5798 5797 5795 5793 5791 5789 5786 5784 5781 5779 5776 5772 5769 5766 5762 5759 5755 5752 5748 5744
5802 5802 5802 5802 5802 5802 5802 5802 5802 5802 5801 5801 5801 5800 5800 5799 5798 5797 5796 5795 5794 5792 5791 5789 5788 5785 5783 5781 5778 5776 5773 5770 5766 5763 5759 5755 5751 5747 5743 5739 5735 5731 5726
5796 5796 5796 5796 5796 5796 5796 5796 5795 5795 5795 5795 5794 5794 5793 5792 5791 5790 5789 5787 5786 5784 5782 5780 5778 5776 5773 5770 5767 5764 5761 5757 5753 5749 5745 5740 5736 5731 5726 5721 5717 5712 5707
5789 5789 5789 5789 5789 5789 5790 5790 5789 5789 5789 5788 5787 5786 5785 5784 5783 5782 5780 5778 5776 5775 5773 5770 5768 5765 5762 5759 5756 5752 5748 5744 5739 5735 5730 5725 5720 5715 5710 5705 5699 5693 5688
5782 5783 5783 5782 5782 5783 5783 5783 5783 5783 5782 5781 5780 5779 5778 5776 5775 5773 5771 5769 5767 5765 5762 5760 5757 5754 5751 5747 5743 5738 5734 5729 5724 5719 5714 5709 5704 5698 5693 5688 5682 5676 5670
5775 5776 5776 5776 5776 5776 5776 5776 5775 5775 5774 5773 5772 5771 5769 5768 5766 5764 5762 5760 5757 5755 5752 5748 5745 5742 5738 5734 5729 5725 5720 5715 5710 5704 5699 5693 5688 5682 5676 5671 5665 5659 5653
5768 5769 5769 5770 5769 5769 5769 5768 5767 5767 5766 5765 5764 5763 5761 5759 5757 5755 5753 5750 5747 5744 5741 5737 5733 5729 5725 5720 5716 5711 5706 5700 5695 5689 5684 5678 5672 5666 5660 5654 5648 5642 5636
5762 5762 5762 5763 5762 5762 5762 5761 5760 5759 5758 5757 5755 5754 5752 5750 5748 5745 5743 5740 5736 5733 5730 5726 5721 5717 5712 5707 5702 5697 5692 5686 5680 5674 5669 5662 5656 5650 5644 5638 5632 5627 5621
5755 5755 5756 5756 5755 5755 5754 5754 5753 5752 5751 5749 5747 5746 5743 5741 5739 5736 5733 5729 5726 5722 5718 5714 5710 5705 5700 5695 5689 5683 5678 5672 5666 5660 5654 5648 5642 5635 5630 5624 5618 5613 5608
5748 5748 5749 5749 5748 5748 5747 5746 5745 5744 5742 5741 5739 5737 5734 5732 5729 5726 5723 5719 5715 5711 5707 5703 5698 5693 5687 5682 5676 5670 5665 5659 5653 5647 5641 5635 5629 5623 5617 5611 5606 5600 5596
5742 5742 5742 5742 5742 5741 5740 5739 5738 5736 5735 5733 5730 5728 5725 5722 5719 5716 5712 5709 5705 5700 5696 5691 5686 5681 5675 5670 5664 5659 5653 5647 5641 5635 5629 5623 5617 5611 5606 5600 5595 5590 5585
5735 5736 5736 5735 5735 5734 5733 5731 5730 5728 5726 5724 5721 5718 5716 5713 5709 5706 5702 5698 5694 5689 5684 5679 5674 5669 5664 5659 5653 5648 5642 5636 5630 5624 5618 5612 5606 5601 5595 5590 5586 5581 5576
5730 5730 5729 5729 5728 5727 5725 5723 5721 5719 5717 5715 5712 5709 5706 5703 5699 5696 5692 5687 5683 5678 5674 5669 5664 5659 5654 5649 5643 5638 5632 5626 5620 5614 5608 5603 5597 5592 5587 5582 5577 5572 5568
5724 5724 5723 5722 5721 5719 5718 5716 5714 5711 5709 5706 5703 5700 5697 5693 5689 5686 5682 5677 5673 5669 5664 5660 5655 5650 5645 5640 5634 5629 5623 5617 5611 5606 5600 5594 5589 5583 5578 5574 5569 5564 5560
5719 5718 5717 5716 5714 5713 5711 5708 5706 5703 5701 5698 5694 5691 5688 5684 5680 5676 5673 5669 5664 5660 5656 5651 5646 5641 5636 5631 5626 5620 5615 5609 5603 5598 5592 5586 5581 5576 5571 5566 5562 5557 5553
5714 5712 5711 5710 5708 5706 5703 5701 5698 5695 5692 5689 5686 5683 5679 5676 5672 5668 5664 5660 5656 5652 5648 5643 5639 5634 5629 5624 5618 5613 5607 5602 5596 5591 5585 5580 5575 5570 5565 5560 5555 5551 5547
5708 5706 5704 5702 5700 5698 5695 5693 5690 5687 5684 5681 5678 5675 5671 5668 5664 5661 5657 5653 5649 5645 5641 5636 5632 5627 5622 5617 5612 5607 5601 5596 5590 5585 5579 5574 5569 5564 5559 5554 5550 5545 5541